Albany, NY

10:20 PM EST on November 17, 2019 (GMT -0500)
Albany International

Weather History for KALB - September, 2019

Change the Weather History Date:

Saturday, September 7, 2019

  Actual Average Record
Temperature  
Mean Temperature 63 °F 65 °F  
Max Temperature 73 °F 76 °F 96 °F (1945)
Min Temperature 52 °F 55 °F 36 °F (1962)
Degree Days  
Heating Degree Days 2 2  
Month to date heating degree days 10 13  
Since 1 July heating degree days 12 36  
Cooling Degree Days 0 3  
Month to date cooling degree days 11 23  
Year to date cooling degree days 734 566  
Growing Degree Days 12 (Base 50)    
Moisture  
Dew Point 50 °F    
Average Humidity 64    
Maximum Humidity 83    
Minimum Humidity 44    
Precipitation  
Precipitation 0.00 in 0.10 in 1.76 in (2011)
Month to date precipitation 1.77 0.70  
Year to date precipitation 30.75 26.85  
Sea Level Pressure  
Sea Level Pressure 29.82 in    
Wind  
Wind Speed 7 mph (WNW)    
Max Wind Speed 21 mph    
Max Gust Speed 26 mph    
Visibility 10 miles    
Events      
T = Trace of Precipitation, MM = Missing Value Source: NWS Daily Summary

Daily Weather History Graph

Daily Weather History Graph

Search for Another Location

Airport or City:

Astronomy

Sep. 07, 2019 Rise Set
Actual Time 6:26 AM EDT 7:19 PM EDT
Civil Twilight 5:57 AM EDT 7:48 PM EDT
Nautical Twilight 5:23 AM EDT 8:22 PM EDT
Astronomical Twilight 4:47 AM EDT 8:57 PM EDT
Moon 3:39 PM EDT (9/7) 12:09 AM EDT (9/7)
Length of Visible Light 13h 50m
Length of Day
12h 53m
Waxing Gibbous, 65% of the Moon is Illuminated
Sep 7
Waxing Gibbous
Sep 14
Full
Sep 21
Last Quarter
Sep 28
New
Oct 5
First Quarter

Hourly Weather History & Observations

Time (EDT) Temp. Dew Point Humidity Pressure Visibility Wind Dir Wind Speed Gust Speed Precip Events Conditions
12:51 AM 57.0 °F 48.9 °F 74% 29.85 in 10.0 mi SW 6.9 mph - N/A   Overcast
1:51 AM 57.9 °F 50.0 °F 75% 29.84 in 10.0 mi SW 3.5 mph - N/A   Overcast
2:51 AM 57.0 °F 50.0 °F 77% 29.83 in 10.0 mi North 3.5 mph - N/A   Mostly Cloudy
3:51 AM 57.9 °F 51.1 °F 78% 29.81 in 10.0 mi NNW 5.8 mph - N/A   Mostly Cloudy
4:51 AM 54.0 °F 48.9 °F 83% 29.81 in 10.0 mi NNW 5.8 mph - N/A   Scattered Clouds
5:51 AM 53.1 °F 48.0 °F 83% 29.82 in 10.0 mi Calm Calm - N/A   Scattered Clouds
6:51 AM 53.1 °F 48.0 °F 83% 29.83 in 10.0 mi North 4.6 mph - N/A   Partly Cloudy
7:51 AM 57.0 °F 48.0 °F 72% 29.83 in 10.0 mi NNW 5.8 mph - N/A   Partly Cloudy
8:51 AM 61.0 °F 48.9 °F 64% 29.83 in 10.0 mi NW 5.8 mph - N/A   Partly Cloudy
9:51 AM 64.9 °F 46.9 °F 52% 29.82 in 10.0 mi NW 5.8 mph - N/A   Partly Cloudy
10:51 AM 66.9 °F 46.0 °F 47% 29.82 in 10.0 mi Variable 3.5 mph - N/A   Partly Cloudy
11:51 AM 70.0 °F 46.0 °F 42% 29.81 in 10.0 mi WNW 10.4 mph - N/A   Partly Cloudy
12:51 PM 71.1 °F 48.9 °F 45% 29.79 in 10.0 mi North 9.2 mph - N/A   Scattered Clouds
1:51 PM 71.1 °F 50.0 °F 47% 29.78 in 10.0 mi NW 10.4 mph - N/A   Mostly Cloudy
2:51 PM 71.1 °F 52.0 °F 51% 29.78 in 10.0 mi West 17.3 mph - N/A   Mostly Cloudy
3:51 PM 70.0 °F 53.1 °F 55% 29.78 in 10.0 mi WNW 12.7 mph 21.9 mph N/A   Mostly Cloudy
4:51 PM 69.1 °F 52.0 °F 54% 29.79 in 10.0 mi WNW 10.4 mph - N/A   Mostly Cloudy
5:51 PM 69.1 °F 51.1 °F 53% 29.80 in 10.0 mi WNW 11.5 mph - N/A   Mostly Cloudy
6:51 PM 68.0 °F 51.1 °F 55% 29.82 in 10.0 mi WNW 11.5 mph - N/A   Mostly Cloudy
7:51 PM 64.0 °F 51.1 °F 63% 29.83 in 10.0 mi Variable 5.8 mph - N/A   Partly Cloudy
8:51 PM 64.0 °F 50.0 °F 60% 29.85 in 10.0 mi WNW 5.8 mph - N/A   Partly Cloudy
9:51 PM 62.1 °F 51.1 °F 67% 29.87 in 10.0 mi Variable 3.5 mph - N/A   Mostly Cloudy
10:51 PM 62.1 °F 51.1 °F 67% 29.87 in 10.0 mi SW 6.9 mph - N/A   Mostly Cloudy
11:51 PM 60.1 °F 51.1 °F 72% 29.87 in 10.0 mi West 6.9 mph - N/A   Scattered Clouds